Year,Month,Day,Hour,Minute,Value (Times are PST for windspeed in km/hr)
2020,11,29,00,00,0.00
2020,11,29,00,01,0.40
2020,11,29,00,02,0.40
2020,11,29,00,03,1.10
2020,11,29,00,04,1.70
2020,11,29,00,05,2.00
2020,11,29,00,06,1.50
2020,11,29,00,07,3.10
2020,11,29,00,08,1.90
2020,11,29,00,09,1.10
2020,11,29,00,10,1.90
2020,11,29,00,11,3.20
2020,11,29,00,12,1.80
2020,11,29,00,13,2.00
2020,11,29,00,14,2.60
2020,11,29,00,15,2.30
2020,11,29,00,16,2.50
2020,11,29,00,17,2.60
2020,11,29,00,18,2.90
2020,11,29,00,19,2.70
2020,11,29,00,20,0.70
2020,11,29,00,21,0.20
2020,11,29,00,22,0.00
2020,11,29,00,23,0.00
2020,11,29,00,24,0.00
2020,11,29,00,25,0.00
2020,11,29,00,26,0.00
2020,11,29,00,27,0.00
2020,11,29,00,28,0.40
2020,11,29,00,29,0.50
2020,11,29,00,30,1.50
2020,11,29,00,31,1.20
2020,11,29,00,32,2.90
2020,11,29,00,33,2.20
2020,11,29,00,34,1.80
2020,11,29,00,35,1.10
2020,11,29,00,36,0.40
2020,11,29,00,37,0.70
2020,11,29,00,38,0.50
2020,11,29,00,39,0.20
2020,11,29,00,40,0.10
2020,11,29,00,41,0.00
2020,11,29,00,42,0.00
2020,11,29,00,43,0.00
2020,11,29,00,44,0.00
2020,11,29,00,45,0.00
2020,11,29,00,46,0.00
2020,11,29,00,47,0.50
2020,11,29,00,48,0.30
2020,11,29,00,49,0.00
2020,11,29,00,50,0.00
2020,11,29,00,51,0.00
2020,11,29,00,52,0.00
2020,11,29,00,53,0.00
2020,11,29,00,54,0.00
2020,11,29,00,55,0.00
2020,11,29,00,56,0.00
2020,11,29,00,57,0.00
2020,11,29,00,58,0.00
2020,11,29,00,59,0.00
2020,11,29,01,00,0.00
2020,11,29,01,01,0.00
2020,11,29,01,02,0.00
2020,11,29,01,03,0.00
2020,11,29,01,04,0.00
2020,11,29,01,05,0.00
2020,11,29,01,06,0.00
2020,11,29,01,07,0.00
2020,11,29,01,08,0.00
2020,11,29,01,09,0.00
2020,11,29,01,10,0.00
2020,11,29,01,11,0.00
2020,11,29,01,12,0.40
2020,11,29,01,13,0.00
2020,11,29,01,14,0.00
2020,11,29,01,15,0.00
2020,11,29,01,16,0.00
2020,11,29,01,17,0.00
2020,11,29,01,18,0.00
2020,11,29,01,19,0.00
2020,11,29,01,20,0.00
2020,11,29,01,21,0.00
2020,11,29,01,22,0.00
2020,11,29,01,23,0.00
2020,11,29,01,24,0.00
2020,11,29,01,25,0.00
2020,11,29,01,26,0.40
2020,11,29,01,27,0.00
2020,11,29,01,28,0.10
2020,11,29,01,29,1.50
2020,11,29,01,30,0.20
2020,11,29,01,31,0.00
2020,11,29,01,32,0.00
2020,11,29,01,33,0.00
2020,11,29,01,34,0.00
2020,11,29,01,35,0.00
2020,11,29,01,36,0.00
2020,11,29,01,37,0.00
2020,11,29,01,38,0.00
2020,11,29,01,39,0.00
2020,11,29,01,40,0.00
2020,11,29,01,41,0.00
2020,11,29,01,42,0.00
2020,11,29,01,43,0.00
2020,11,29,01,44,0.00
2020,11,29,01,45,0.00
2020,11,29,01,46,0.00
2020,11,29,01,47,0.00
2020,11,29,01,48,2.60
2020,11,29,01,49,4.00
2020,11,29,01,50,4.30
2020,11,29,01,51,2.90
2020,11,29,01,52,2.30
2020,11,29,01,53,2.70
2020,11,29,01,54,4.40
2020,11,29,01,55,3.90
2020,11,29,01,56,4.20
2020,11,29,01,57,3.60
2020,11,29,01,58,3.40
2020,11,29,01,59,3.70
2020,11,29,02,00,4.10
2020,11,29,02,01,3.50
2020,11,29,02,02,3.50
2020,11,29,02,03,3.80
2020,11,29,02,04,4.00
2020,11,29,02,05,3.50
2020,11,29,02,06,2.50
2020,11,29,02,07,3.10
2020,11,29,02,08,2.10
2020,11,29,02,09,2.10
2020,11,29,02,10,1.80
2020,11,29,02,11,2.40
2020,11,29,02,12,2.40
2020,11,29,02,13,1.90
2020,11,29,02,14,0.70
2020,11,29,02,15,0.00
2020,11,29,02,16,0.00
2020,11,29,02,17,0.20
2020,11,29,02,18,2.00
2020,11,29,02,19,1.60
2020,11,29,02,20,1.10
2020,11,29,02,21,0.20
2020,11,29,02,22,0.10
2020,11,29,02,23,0.00
2020,11,29,02,24,0.00
2020,11,29,02,25,0.00
2020,11,29,02,26,0.00
2020,11,29,02,27,0.00
2020,11,29,02,28,0.00
2020,11,29,02,29,0.20
2020,11,29,02,30,0.30
2020,11,29,02,31,0.00
2020,11,29,02,32,0.00
2020,11,29,02,33,0.00
2020,11,29,02,34,0.80
2020,11,29,02,35,1.20
2020,11,29,02,36,1.90
2020,11,29,02,37,1.00
2020,11,29,02,38,3.10
2020,11,29,02,39,3.40
2020,11,29,02,40,4.10
2020,11,29,02,41,4.70
2020,11,29,02,42,3.00
2020,11,29,02,43,3.00
2020,11,29,02,44,3.50
2020,11,29,02,45,4.00
2020,11,29,02,46,4.70
2020,11,29,02,47,4.40
2020,11,29,02,48,4.30
2020,11,29,02,49,4.40
2020,11,29,02,50,4.40
2020,11,29,02,51,3.40
2020,11,29,02,52,3.90
2020,11,29,02,53,2.40
2020,11,29,02,54,2.30
2020,11,29,02,55,3.50
2020,11,29,02,56,1.90
2020,11,29,02,57,3.00
2020,11,29,02,58,2.40
2020,11,29,02,59,2.80
2020,11,29,03,00,3.10
2020,11,29,03,01,3.10
2020,11,29,03,02,3.30
2020,11,29,03,03,2.60
2020,11,29,03,04,2.30
2020,11,29,03,05,1.50
2020,11,29,03,06,2.30
2020,11,29,03,07,2.90
2020,11,29,03,08,2.80
2020,11,29,03,09,3.10
2020,11,29,03,10,3.40
2020,11,29,03,11,3.70
2020,11,29,03,12,3.30
2020,11,29,03,13,2.60
2020,11,29,03,14,2.60
2020,11,29,03,15,1.80
2020,11,29,03,16,0.30
2020,11,29,03,17,1.50
2020,11,29,03,18,1.40
2020,11,29,03,19,2.80
2020,11,29,03,20,4.00
2020,11,29,03,21,5.20
2020,11,29,03,22,3.20
2020,11,29,03,23,3.70
2020,11,29,03,24,2.80
2020,11,29,03,25,2.60
2020,11,29,03,26,3.80
2020,11,29,03,27,3.40
2020,11,29,03,28,3.60
2020,11,29,03,29,3.30
2020,11,29,03,30,4.20
2020,11,29,03,31,4.60
2020,11,29,03,32,4.20
2020,11,29,03,33,3.80
2020,11,29,03,34,3.10
2020,11,29,03,35,3.10
2020,11,29,03,36,2.60
2020,11,29,03,37,2.60
2020,11,29,03,38,2.40
2020,11,29,03,39,1.90
2020,11,29,03,40,2.50
2020,11,29,03,41,1.90
2020,11,29,03,42,1.90
2020,11,29,03,43,1.40
2020,11,29,03,44,1.80
2020,11,29,03,45,2.30
2020,11,29,03,46,2.10
2020,11,29,03,47,1.10
2020,11,29,03,48,1.40
2020,11,29,03,49,1.60
2020,11,29,03,50,2.20
2020,11,29,03,51,1.80
2020,11,29,03,52,1.60
2020,11,29,03,53,2.20
2020,11,29,03,54,2.30
2020,11,29,03,55,1.50
2020,11,29,03,56,1.10
2020,11,29,03,57,1.40
2020,11,29,03,58,1.40
2020,11,29,03,59,2.70
2020,11,29,04,00,2.80
2020,11,29,04,01,1.70
2020,11,29,04,02,1.70
2020,11,29,04,03,0.40
2020,11,29,04,04,0.20
2020,11,29,04,05,0.50
2020,11,29,04,06,0.90
2020,11,29,04,07,1.10
2020,11,29,04,08,1.00
2020,11,29,04,09,1.70
2020,11,29,04,10,1.10
2020,11,29,04,11,0.00
2020,11,29,04,12,0.00
2020,11,29,04,13,0.50
2020,11,29,04,14,0.40
2020,11,29,04,15,1.20
2020,11,29,04,16,1.50
2020,11,29,04,17,1.40
2020,11,29,04,18,0.60
2020,11,29,04,19,1.00
2020,11,29,04,20,1.80
2020,11,29,04,21,1.80
2020,11,29,04,22,2.10
2020,11,29,04,23,1.80
2020,11,29,04,24,1.80
2020,11,29,04,25,2.10
2020,11,29,04,26,3.80
2020,11,29,04,27,3.00
2020,11,29,04,28,1.70
2020,11,29,04,29,0.60
2020,11,29,04,30,0.10
2020,11,29,04,31,0.10
2020,11,29,04,32,0.50
2020,11,29,04,33,1.10
2020,11,29,04,34,0.80
2020,11,29,04,35,2.10
2020,11,29,04,36,2.90
2020,11,29,04,37,3.30
2020,11,29,04,38,3.80
2020,11,29,04,39,1.90
2020,11,29,04,40,0.00
2020,11,29,04,41,0.20
2020,11,29,04,42,0.20
2020,11,29,04,43,0.20
2020,11,29,04,44,1.00
2020,11,29,04,45,0.60
2020,11,29,04,46,0.00
2020,11,29,04,47,0.20
2020,11,29,04,48,0.30
2020,11,29,04,49,0.20
2020,11,29,04,50,1.90
2020,11,29,04,51,2.40
2020,11,29,04,52,2.40
2020,11,29,04,53,2.60
2020,11,29,04,54,3.40
2020,11,29,04,55,3.00
2020,11,29,04,56,3.10
2020,11,29,04,57,3.90
2020,11,29,04,58,3.40
2020,11,29,04,59,1.90
2020,11,29,05,00,2.50
2020,11,29,05,01,2.90
2020,11,29,05,02,2.60
2020,11,29,05,03,1.90
2020,11,29,05,04,0.30
2020,11,29,05,05,0.00
2020,11,29,05,06,0.00
2020,11,29,05,07,0.00
2020,11,29,05,08,0.00
2020,11,29,05,09,0.10
2020,11,29,05,10,0.00
2020,11,29,05,11,0.00
2020,11,29,05,12,0.20
2020,11,29,05,13,0.00
2020,11,29,05,14,0.10
2020,11,29,05,15,0.00
2020,11,29,05,16,0.00
2020,11,29,05,17,0.00
2020,11,29,05,18,0.00
2020,11,29,05,19,0.00
2020,11,29,05,20,0.00
2020,11,29,05,21,0.00
2020,11,29,05,22,0.00
2020,11,29,05,23,1.80
2020,11,29,05,24,2.80
2020,11,29,05,25,2.60
2020,11,29,05,26,0.90
2020,11,29,05,27,0.20
2020,11,29,05,28,0.00
2020,11,29,05,29,0.00
2020,11,29,05,30,0.00
2020,11,29,05,31,0.00
2020,11,29,05,32,0.00
2020,11,29,05,33,3.60
2020,11,29,05,34,2.40
2020,11,29,05,35,1.50
2020,11,29,05,36,2.40
2020,11,29,05,37,3.70
2020,11,29,05,38,3.10
2020,11,29,05,39,3.90
2020,11,29,05,40,2.20
2020,11,29,05,41,2.80
2020,11,29,05,42,2.50
2020,11,29,05,43,2.50
2020,11,29,05,44,2.30
2020,11,29,05,45,0.60
2020,11,29,05,46,0.50
2020,11,29,05,47,0.70
2020,11,29,05,48,2.00
2020,11,29,05,49,1.60
2020,11,29,05,50,2.30
2020,11,29,05,51,2.30
2020,11,29,05,52,1.80
2020,11,29,05,53,2.90
2020,11,29,05,54,1.60
2020,11,29,05,55,0.70
2020,11,29,05,56,0.40
2020,11,29,05,57,1.70
2020,11,29,05,58,2.00
2020,11,29,05,59,1.80
2020,11,29,06,00,1.90
2020,11,29,06,01,1.40
2020,11,29,06,02,1.20
2020,11,29,06,03,1.40
2020,11,29,06,04,1.50
2020,11,29,06,05,1.50
2020,11,29,06,06,2.50
2020,11,29,06,07,4.60
2020,11,29,06,08,2.40
2020,11,29,06,09,0.50
2020,11,29,06,10,0.00
2020,11,29,06,11,0.00
2020,11,29,06,12,0.60
2020,11,29,06,13,0.80
2020,11,29,06,14,1.00
2020,11,29,06,15,0.90
2020,11,29,06,16,1.10
2020,11,29,06,17,1.50
2020,11,29,06,18,1.50
2020,11,29,06,19,1.40
2020,11,29,06,20,1.00
2020,11,29,06,21,0.40
2020,11,29,06,22,2.20
2020,11,29,06,23,2.30
2020,11,29,06,24,2.20
2020,11,29,06,25,2.30
2020,11,29,06,26,2.90
2020,11,29,06,27,3.60
2020,11,29,06,28,3.80
2020,11,29,06,29,3.50
2020,11,29,06,30,3.80
2020,11,29,06,31,3.60
2020,11,29,06,32,3.00
2020,11,29,06,33,4.40
2020,11,29,06,34,3.90
2020,11,29,06,35,4.30
2020,11,29,06,36,4.70
2020,11,29,06,37,5.00
2020,11,29,06,38,5.30
2020,11,29,06,39,4.50
2020,11,29,06,40,1.70
2020,11,29,06,41,1.50
2020,11,29,06,42,2.00
2020,11,29,06,43,3.30
2020,11,29,06,44,3.20
2020,11,29,06,45,2.90
2020,11,29,06,46,4.00
2020,11,29,06,47,5.60
2020,11,29,06,48,3.50
2020,11,29,06,49,4.00
2020,11,29,06,50,2.10
2020,11,29,06,51,1.70
2020,11,29,06,52,2.70
2020,11,29,06,53,4.30
2020,11,29,06,54,4.40
2020,11,29,06,55,4.10
2020,11,29,06,56,5.10
2020,11,29,06,57,3.30
2020,11,29,06,58,0.90
2020,11,29,06,59,1.00
2020,11,29,07,00,0.60
2020,11,29,07,01,1.10
2020,11,29,07,02,0.60
2020,11,29,07,03,0.00
2020,11,29,07,04,0.00
2020,11,29,07,05,0.00
2020,11,29,07,06,0.00
2020,11,29,07,07,0.00
2020,11,29,07,08,0.00
2020,11,29,07,09,0.00
2020,11,29,07,10,0.00
2020,11,29,07,11,0.00
2020,11,29,07,12,0.00
2020,11,29,07,13,0.00
2020,11,29,07,14,0.00
2020,11,29,07,15,0.00
2020,11,29,07,16,0.00
2020,11,29,07,17,0.00
2020,11,29,07,18,0.00
2020,11,29,07,19,0.00
2020,11,29,07,20,0.00
2020,11,29,07,21,0.00
2020,11,29,07,22,0.00
2020,11,29,07,23,2.70
2020,11,29,07,24,3.80
2020,11,29,07,25,2.30
2020,11,29,07,26,2.50
2020,11,29,07,27,3.10
2020,11,29,07,28,3.10
2020,11,29,07,29,2.60
2020,11,29,07,30,3.20
2020,11,29,07,31,2.70
2020,11,29,07,32,2.70
2020,11,29,07,33,2.80
2020,11,29,07,34,2.60
2020,11,29,07,35,3.40
2020,11,29,07,36,3.00
2020,11,29,07,37,3.40
2020,11,29,07,38,2.40
2020,11,29,07,39,3.30
2020,11,29,07,40,3.90
2020,11,29,07,41,3.60
2020,11,29,07,42,4.00
2020,11,29,07,43,0.10
2020,11,29,07,44,1.10
2020,11,29,07,45,2.40
2020,11,29,07,46,2.30
2020,11,29,07,47,1.50
2020,11,29,07,48,2.30
2020,11,29,07,49,2.20
2020,11,29,07,50,2.10
2020,11,29,07,51,2.50
2020,11,29,07,52,2.40
2020,11,29,07,53,2.90
2020,11,29,07,54,2.30
2020,11,29,07,55,2.50
2020,11,29,07,56,2.00
2020,11,29,07,57,3.40
2020,11,29,07,58,2.40
2020,11,29,07,59,1.90
2020,11,29,08,00,3.10
2020,11,29,08,01,4.50
2020,11,29,08,02,3.20
2020,11,29,08,03,3.50
2020,11,29,08,04,3.20
2020,11,29,08,05,4.50
2020,11,29,08,06,3.10
2020,11,29,08,07,3.20
2020,11,29,08,08,3.10
2020,11,29,08,09,4.30
2020,11,29,08,10,4.00
2020,11,29,08,11,4.20
2020,11,29,08,12,3.70
2020,11,29,08,13,4.00
2020,11,29,08,14,4.20
2020,11,29,08,15,3.00
2020,11,29,08,16,3.10
2020,11,29,08,17,3.10
2020,11,29,08,18,4.40
2020,11,29,08,19,4.90
2020,11,29,08,20,5.30
2020,11,29,08,21,6.90
2020,11,29,08,22,6.30
2020,11,29,08,23,5.60
2020,11,29,08,24,6.80
2020,11,29,08,25,6.70
2020,11,29,08,26,7.40
2020,11,29,08,27,6.10
2020,11,29,08,28,5.80
2020,11,29,08,29,6.40
2020,11,29,08,30,4.70
2020,11,29,08,31,6.00
2020,11,29,08,32,3.90
2020,11,29,08,33,5.90
2020,11,29,08,34,4.50
2020,11,29,08,35,4.10
2020,11,29,08,36,4.60
2020,11,29,08,37,4.90
2020,11,29,08,38,4.70
2020,11,29,08,39,3.50
2020,11,29,08,40,4.20
2020,11,29,08,41,4.70
2020,11,29,08,42,5.10
2020,11,29,08,43,4.70
2020,11,29,08,44,5.40
2020,11,29,08,45,5.30
2020,11,29,08,46,8.30
2020,11,29,08,47,8.80
2020,11,29,08,48,8.40
2020,11,29,08,49,7.70
2020,11,29,08,50,7.50
2020,11,29,08,51,7.30
2020,11,29,08,52,8.50
2020,11,29,08,53,9.30
2020,11,29,08,54,12.60
2020,11,29,08,55,9.40
2020,11,29,08,56,5.70
2020,11,29,08,57,3.90
2020,11,29,08,58,4.00
2020,11,29,08,59,3.90
2020,11,29,09,00,5.00
2020,11,29,09,01,4.20
2020,11,29,09,02,4.30
2020,11,29,09,03,2.40
2020,11,29,09,04,1.90
2020,11,29,09,05,1.90
2020,11,29,09,06,2.20
2020,11,29,09,07,3.10
2020,11,29,09,08,4.10
2020,11,29,09,09,2.00
2020,11,29,09,10,2.00
2020,11,29,09,11,2.00
2020,11,29,09,12,2.10
2020,11,29,09,13,1.20
2020,11,29,09,14,1.00
2020,11,29,09,15,1.40
2020,11,29,09,16,2.00
2020,11,29,09,17,1.40
2020,11,29,09,18,1.80
2020,11,29,09,19,1.30
2020,11,29,09,20,1.40
2020,11,29,09,21,1.40
2020,11,29,09,22,2.70
2020,11,29,09,23,2.60
2020,11,29,09,24,4.80
2020,11,29,09,25,4.10
2020,11,29,09,26,3.60
2020,11,29,09,27,3.70
2020,11,29,09,28,4.80
2020,11,29,09,29,4.20
2020,11,29,09,30,2.70
2020,11,29,09,31,4.20
2020,11,29,09,32,3.10
2020,11,29,09,33,2.60
2020,11,29,09,34,1.60
2020,11,29,09,35,2.30
2020,11,29,09,36,2.30
2020,11,29,09,37,2.70
2020,11,29,09,38,2.70
2020,11,29,09,39,2.10
2020,11,29,09,40,1.30
2020,11,29,09,41,2.40
2020,11,29,09,42,2.30
2020,11,29,09,43,1.50
2020,11,29,09,44,2.60
2020,11,29,09,45,2.30
2020,11,29,09,46,3.30
2020,11,29,09,47,3.60
2020,11,29,09,48,1.80
2020,11,29,09,49,2.00
2020,11,29,09,50,3.00
2020,11,29,09,51,1.80
2020,11,29,09,52,3.00
2020,11,29,09,53,1.00
2020,11,29,09,54,1.70
2020,11,29,09,55,1.70
2020,11,29,09,56,2.00
2020,11,29,09,57,1.20
2020,11,29,09,58,0.00
2020,11,29,09,59,0.00
2020,11,29,10,00,0.20
2020,11,29,10,01,0.80
2020,11,29,10,02,3.10
2020,11,29,10,03,2.20
2020,11,29,10,04,2.50
2020,11,29,10,05,4.40
2020,11,29,10,06,3.00
2020,11,29,10,07,4.00
2020,11,29,10,08,3.50
2020,11,29,10,09,0.60
2020,11,29,10,10,0.00
2020,11,29,10,11,0.00
2020,11,29,10,12,1.20
2020,11,29,10,13,1.30
2020,11,29,10,14,1.10
2020,11,29,10,15,2.80
2020,11,29,10,16,3.40
2020,11,29,10,17,3.90
2020,11,29,10,18,5.20
2020,11,29,10,19,4.40
2020,11,29,10,20,4.40
2020,11,29,10,21,5.30
2020,11,29,10,22,5.10
2020,11,29,10,23,5.10
2020,11,29,10,24,3.40
2020,11,29,10,25,3.20
2020,11,29,10,26,2.10
2020,11,29,10,27,1.90
2020,11,29,10,28,0.50
2020,11,29,10,29,1.10
2020,11,29,10,30,1.10
2020,11,29,10,31,0.20
2020,11,29,10,32,0.20
2020,11,29,10,33,0.30
2020,11,29,10,34,0.40
2020,11,29,10,35,1.00
2020,11,29,10,36,0.60
2020,11,29,10,37,0.00
2020,11,29,10,38,0.50
2020,11,29,10,39,0.10
2020,11,29,10,40,0.20
2020,11,29,10,41,0.10
2020,11,29,10,42,0.50
2020,11,29,10,43,0.10
2020,11,29,10,44,1.10
2020,11,29,10,45,2.50
2020,11,29,10,46,1.10
2020,11,29,10,47,1.60
2020,11,29,10,48,1.20
2020,11,29,10,49,1.60
2020,11,29,10,50,0.80
2020,11,29,10,51,1.10
2020,11,29,10,52,2.60
2020,11,29,10,53,3.00
2020,11,29,10,54,1.60
2020,11,29,10,55,0.00
2020,11,29,10,56,0.00
2020,11,29,10,57,0.00
2020,11,29,10,58,0.80
2020,11,29,10,59,1.60
2020,11,29,11,00,0.70
2020,11,29,11,01,1.30
2020,11,29,11,02,0.20
2020,11,29,11,03,0.00
2020,11,29,11,04,0.00
2020,11,29,11,05,0.00
2020,11,29,11,06,0.00
2020,11,29,11,07,0.00
2020,11,29,11,08,0.00
2020,11,29,11,09,0.00
2020,11,29,11,10,0.00
2020,11,29,11,11,0.00
2020,11,29,11,12,0.00
2020,11,29,11,13,0.00
2020,11,29,11,14,0.00
2020,11,29,11,15,0.00
2020,11,29,11,16,0.00
2020,11,29,11,17,0.00
2020,11,29,11,18,0.00
2020,11,29,11,19,0.00
2020,11,29,11,20,0.00
2020,11,29,11,21,0.00
2020,11,29,11,22,0.00
2020,11,29,11,23,0.00
2020,11,29,11,24,0.00
2020,11,29,11,25,0.60
2020,11,29,11,26,1.80
2020,11,29,11,27,0.20
2020,11,29,11,28,0.00
2020,11,29,11,29,0.00
2020,11,29,11,30,0.00
2020,11,29,11,31,0.00
2020,11,29,11,32,0.00
2020,11,29,11,33,0.00
2020,11,29,11,34,0.00
2020,11,29,11,35,0.00
2020,11,29,11,36,0.00
2020,11,29,11,37,0.00
2020,11,29,11,38,0.00
2020,11,29,11,39,1.40
2020,11,29,11,40,0.50
2020,11,29,11,41,0.10
2020,11,29,11,42,0.00
2020,11,29,11,43,0.20
2020,11,29,11,44,0.00
2020,11,29,11,45,0.50
2020,11,29,11,46,0.70
2020,11,29,11,47,0.00
2020,11,29,11,48,0.00
2020,11,29,11,49,0.00
2020,11,29,11,50,0.90
2020,11,29,11,51,0.00
2020,11,29,11,52,0.00
2020,11,29,11,53,0.00
2020,11,29,11,54,0.00
2020,11,29,11,55,0.00
2020,11,29,11,56,1.90
2020,11,29,11,57,2.60
2020,11,29,11,58,1.70
2020,11,29,11,59,1.80
2020,11,29,12,00,1.70
2020,11,29,12,01,1.30
2020,11,29,12,02,1.20
2020,11,29,12,03,2.00
2020,11,29,12,04,2.50
2020,11,29,12,05,1.10
2020,11,29,12,06,0.00
2020,11,29,12,07,1.00
2020,11,29,12,08,0.00
2020,11,29,12,09,0.00
2020,11,29,12,10,1.60
2020,11,29,12,11,0.20
2020,11,29,12,12,0.00
2020,11,29,12,13,0.00
2020,11,29,12,14,0.00
2020,11,29,12,15,0.50
2020,11,29,12,16,0.80
2020,11,29,12,17,0.00
2020,11,29,12,18,0.00
2020,11,29,12,19,0.00
2020,11,29,12,20,0.00
2020,11,29,12,21,0.00
2020,11,29,12,22,0.00
2020,11,29,12,23,0.00
2020,11,29,12,24,0.00
2020,11,29,12,25,0.00
2020,11,29,12,26,0.00
2020,11,29,12,27,0.00
2020,11,29,12,28,0.00
2020,11,29,12,29,0.00
2020,11,29,12,30,0.00
2020,11,29,12,31,0.00
2020,11,29,12,32,0.00
2020,11,29,12,33,0.30
2020,11,29,12,34,0.60
2020,11,29,12,35,0.40
2020,11,29,12,36,0.80
2020,11,29,12,37,1.40
2020,11,29,12,38,2.00
2020,11,29,12,39,1.10
2020,11,29,12,40,0.20
2020,11,29,12,41,1.30
2020,11,29,12,42,3.00
2020,11,29,12,43,1.30
2020,11,29,12,44,0.80
2020,11,29,12,45,1.50
2020,11,29,12,46,0.70
2020,11,29,12,47,1.80
2020,11,29,12,48,0.30
2020,11,29,12,49,1.30
2020,11,29,12,50,3.10
2020,11,29,12,51,1.60
2020,11,29,12,52,1.90
2020,11,29,12,53,1.50
2020,11,29,12,54,1.20
2020,11,29,12,55,2.30
2020,11,29,12,56,2.30
2020,11,29,12,57,1.10
2020,11,29,12,58,0.90
2020,11,29,12,59,1.10
2020,11,29,13,00,2.70
2020,11,29,13,01,4.40
2020,11,29,13,02,1.50
2020,11,29,13,03,1.40
2020,11,29,13,04,1.40
2020,11,29,13,05,1.30
2020,11,29,13,06,2.70
2020,11,29,13,07,2.90
2020,11,29,13,08,0.70
2020,11,29,13,09,0.60
2020,11,29,13,10,1.90
2020,11,29,13,11,1.30
2020,11,29,13,12,2.70
2020,11,29,13,13,1.20
2020,11,29,13,14,2.60
2020,11,29,13,15,3.50
2020,11,29,13,16,3.00
2020,11,29,13,17,1.70
2020,11,29,13,18,2.10
2020,11,29,13,19,3.20
2020,11,29,13,20,1.00
2020,11,29,13,21,1.40
2020,11,29,13,22,1.60
2020,11,29,13,23,3.90
2020,11,29,13,24,1.50
2020,11,29,13,25,2.20
2020,11,29,13,26,2.70
2020,11,29,13,27,2.40
2020,11,29,13,28,1.40
2020,11,29,13,29,4.80
2020,11,29,13,30,2.90
2020,11,29,13,31,2.90
2020,11,29,13,32,1.40
2020,11,29,13,33,1.50
2020,11,29,13,34,0.80
2020,11,29,13,35,2.00
2020,11,29,13,36,2.30
2020,11,29,13,37,1.90
2020,11,29,13,38,1.90
2020,11,29,13,39,1.90
2020,11,29,13,40,1.00
2020,11,29,13,41,2.00
2020,11,29,13,42,3.00
2020,11,29,13,43,3.10
2020,11,29,13,44,2.10
2020,11,29,13,45,1.50
2020,11,29,13,46,2.20
2020,11,29,13,47,3.10
2020,11,29,13,48,3.60
2020,11,29,13,49,2.30
2020,11,29,13,50,2.60
2020,11,29,13,51,5.10
2020,11,29,13,52,1.90
2020,11,29,13,53,3.40
2020,11,29,13,54,3.70
2020,11,29,13,55,3.30
2020,11,29,13,56,4.40
2020,11,29,13,57,2.70
2020,11,29,13,58,3.00
2020,11,29,13,59,4.20
2020,11,29,14,00,4.10
2020,11,29,14,01,4.50
2020,11,29,14,02,2.00
2020,11,29,14,03,1.70
2020,11,29,14,04,3.90
2020,11,29,14,05,5.40
2020,11,29,14,06,7.70
2020,11,29,14,07,6.40
2020,11,29,14,08,3.90
2020,11,29,14,09,4.90
2020,11,29,14,10,2.70
2020,11,29,14,11,1.50
2020,11,29,14,12,3.10
2020,11,29,14,13,3.80
2020,11,29,14,14,2.20
2020,11,29,14,15,3.40
2020,11,29,14,16,4.10
2020,11,29,14,17,4.00
2020,11,29,14,18,5.50
2020,11,29,14,19,4.00
2020,11,29,14,20,3.00
2020,11,29,14,21,2.90
2020,11,29,14,22,2.20
2020,11,29,14,23,2.20
2020,11,29,14,24,3.20
2020,11,29,14,25,3.10
2020,11,29,14,26,3.20
2020,11,29,14,27,2.30
2020,11,29,14,28,2.40
2020,11,29,14,29,3.10
2020,11,29,14,30,3.50
2020,11,29,14,31,7.20
2020,11,29,14,32,3.70
2020,11,29,14,33,3.00
2020,11,29,14,34,1.90
2020,11,29,14,35,2.70
2020,11,29,14,36,2.70
2020,11,29,14,37,4.00
2020,11,29,14,38,3.70
2020,11,29,14,39,4.20
2020,11,29,14,40,3.50
2020,11,29,14,41,3.70
2020,11,29,14,42,3.60
2020,11,29,14,43,3.50
2020,11,29,14,44,2.20
2020,11,29,14,45,4.20
2020,11,29,14,46,2.40
2020,11,29,14,47,2.70
2020,11,29,14,48,3.20
2020,11,29,14,49,1.90
2020,11,29,14,50,0.80
2020,11,29,14,51,1.20
2020,11,29,14,52,3.90
2020,11,29,14,53,1.40
2020,11,29,14,54,2.30
2020,11,29,14,55,3.50
2020,11,29,14,56,3.70
2020,11,29,14,57,1.50
2020,11,29,14,58,1.80
2020,11,29,14,59,1.60
2020,11,29,15,00,3.70
2020,11,29,15,01,3.40
2020,11,29,15,02,4.70
2020,11,29,15,03,3.70
2020,11,29,15,04,2.30
2020,11,29,15,05,1.90
2020,11,29,15,06,4.50
2020,11,29,15,07,4.70
2020,11,29,15,08,1.70
2020,11,29,15,09,0.80
2020,11,29,15,10,1.50
2020,11,29,15,11,2.00
2020,11,29,15,12,1.80
2020,11,29,15,13,0.60
2020,11,29,15,14,2.90
2020,11,29,15,15,3.60
2020,11,29,15,16,2.40
2020,11,29,15,17,2.50
2020,11,29,15,18,2.40
2020,11,29,15,19,1.90
2020,11,29,15,20,3.10
2020,11,29,15,21,5.20
2020,11,29,15,22,3.90
2020,11,29,15,23,1.10
2020,11,29,15,24,0.60
2020,11,29,15,25,0.20
2020,11,29,15,26,1.90
2020,11,29,15,27,3.60
2020,11,29,15,28,4.30
2020,11,29,15,29,2.50
2020,11,29,15,30,1.50
2020,11,29,15,31,1.10
2020,11,29,15,32,0.70
2020,11,29,15,33,1.50
2020,11,29,15,34,3.10
2020,11,29,15,35,2.70
2020,11,29,15,36,2.30
2020,11,29,15,37,3.50
2020,11,29,15,38,1.90
2020,11,29,15,39,0.00
2020,11,29,15,40,0.40
2020,11,29,15,41,2.60
2020,11,29,15,42,1.60
2020,11,29,15,43,1.20
2020,11,29,15,44,2.50
2020,11,29,15,45,0.70
2020,11,29,15,46,2.60
2020,11,29,15,47,0.60
2020,11,29,15,48,1.40
2020,11,29,15,49,0.90
2020,11,29,15,50,1.40
2020,11,29,15,51,1.00
2020,11,29,15,52,0.20
2020,11,29,15,53,1.50
2020,11,29,15,54,2.40
2020,11,29,15,55,3.50
2020,11,29,15,56,2.30
2020,11,29,15,57,1.90
2020,11,29,15,58,3.40
2020,11,29,15,59,4.40
2020,11,29,16,00,2.80
2020,11,29,16,01,2.00
2020,11,29,16,02,0.50
2020,11,29,16,03,0.40
2020,11,29,16,04,0.30
2020,11,29,16,05,0.20
2020,11,29,16,06,0.30
2020,11,29,16,07,0.90
2020,11,29,16,08,0.90
2020,11,29,16,09,0.20
2020,11,29,16,10,0.50
2020,11,29,16,11,1.40
2020,11,29,16,12,2.90
2020,11,29,16,13,3.70
2020,11,29,16,14,4.70
2020,11,29,16,15,5.20
2020,11,29,16,16,5.80
2020,11,29,16,17,4.30
2020,11,29,16,18,5.50
2020,11,29,16,19,2.80
2020,11,29,16,20,2.30
2020,11,29,16,21,1.30
2020,11,29,16,22,0.40
2020,11,29,16,23,2.70
2020,11,29,16,24,3.10
2020,11,29,16,25,4.40
2020,11,29,16,26,3.50
2020,11,29,16,27,1.90
2020,11,29,16,28,2.30
2020,11,29,16,29,4.50
2020,11,29,16,30,1.00
2020,11,29,16,31,1.50
2020,11,29,16,32,2.00
2020,11,29,16,33,3.10
2020,11,29,16,34,4.30
2020,11,29,16,35,2.90
2020,11,29,16,36,3.50
2020,11,29,16,37,4.20
2020,11,29,16,38,2.50
2020,11,29,16,39,3.90
2020,11,29,16,40,4.90
2020,11,29,16,41,2.70
2020,11,29,16,42,0.90
2020,11,29,16,43,1.90
2020,11,29,16,44,2.40
2020,11,29,16,45,4.30
2020,11,29,16,46,3.20
2020,11,29,16,47,2.40
2020,11,29,16,48,6.00
2020,11,29,16,49,2.00
2020,11,29,16,50,2.10
2020,11,29,16,51,1.00
2020,11,29,16,52,0.50
2020,11,29,16,53,4.80
2020,11,29,16,54,3.00
2020,11,29,16,55,1.90
2020,11,29,16,56,4.50
2020,11,29,16,57,5.10
2020,11,29,16,58,4.30
2020,11,29,16,59,3.70
2020,11,29,17,00,2.10
2020,11,29,17,01,3.50
2020,11,29,17,02,6.00
2020,11,29,17,03,5.60
2020,11,29,17,04,4.70
2020,11,29,17,05,4.00
2020,11,29,17,06,5.20
2020,11,29,17,07,5.80
2020,11,29,17,08,5.20
2020,11,29,17,09,5.60
2020,11,29,17,10,4.90
2020,11,29,17,11,6.60
2020,11,29,17,12,4.60
2020,11,29,17,13,4.20
2020,11,29,17,14,5.50
2020,11,29,17,15,6.00
2020,11,29,17,16,5.60
2020,11,29,17,17,4.70
2020,11,29,17,18,5.40
2020,11,29,17,19,4.50
2020,11,29,17,20,6.90
2020,11,29,17,21,3.50
2020,11,29,17,22,3.20
2020,11,29,17,23,3.20
2020,11,29,17,24,3.20
2020,11,29,17,25,3.50
2020,11,29,17,26,3.40
2020,11,29,17,27,2.00
2020,11,29,17,28,3.90
2020,11,29,17,29,6.00
2020,11,29,17,30,3.50
2020,11,29,17,31,3.50
2020,11,29,17,32,2.50
2020,11,29,17,33,2.30
2020,11,29,17,34,2.70
2020,11,29,17,35,4.60
2020,11,29,17,36,2.80
2020,11,29,17,37,4.30
2020,11,29,17,38,2.60
2020,11,29,17,39,2.90
2020,11,29,17,40,3.60
2020,11,29,17,41,3.50
2020,11,29,17,42,2.50
2020,11,29,17,43,4.50
2020,11,29,17,44,4.10
2020,11,29,17,45,4.60
2020,11,29,17,46,3.60
2020,11,29,17,47,1.30
2020,11,29,17,48,3.70
2020,11,29,17,49,2.90
2020,11,29,17,50,3.10
2020,11,29,17,51,5.60
2020,11,29,17,52,4.30
2020,11,29,17,53,3.70
2020,11,29,17,54,4.90
2020,11,29,17,55,3.80
2020,11,29,17,56,4.10
2020,11,29,17,57,4.10
2020,11,29,17,58,4.90
2020,11,29,17,59,4.30
2020,11,29,18,00,4.20
2020,11,29,18,01,4.90
2020,11,29,18,02,3.10
2020,11,29,18,03,5.90
2020,11,29,18,04,4.30
2020,11,29,18,05,4.40
2020,11,29,18,06,3.80